This is the latest recevied weather packets stored in our database for station/object WD7OO. If no packets are shown the sender has not sent any weather packets the latest 1 day(s).
| Time | Temp. | Humidity | Pressure | Rain* | Wind** | Luminosity | Snow |
|---|---|---|---|---|---|---|---|
| 1777995683 | 7.22° C | 86% | 1009.2 hPa | 0 mm | 0 m/s | 367 W/m² | - |
| 1777995381 | 7.22° C | 90% | 1009.5 hPa | 0 mm | 0.45 m/s, 239° | 337 W/m² | - |
| 1777995078 | 7.22° C | 92% | 1009.4 hPa | 0 mm | 0.45 m/s, 311° | 333 W/m² | - |
| 1777994774 | 6.67° C | 92% | 1009.1 hPa | 0 mm | 0.45 m/s, 321° | 278 W/m² | - |
| 1777994470 | 6.67° C | 93% | 1009.1 hPa | 0 mm | 0.45 m/s, 307° | 228 W/m² | - |
| 1777994166 | 6.67° C | 94% | 1009.1 hPa | 0 mm | 0 m/s | 170 W/m² | - |
| 1777993863 | 6.67° C | 94% | 1009.5 hPa | 0 mm | 0.45 m/s, 266° | 128 W/m² | - |
| 1777993559 | 6.11° C | 93% | 1009.7 hPa | 1.27 mm | 0.89 m/s, 277° | 123 W/m² | - |
| 1777993256 | 6.67° C | 94% | 1009.7 hPa | 1.27 mm | 0.45 m/s, 307° | 103 W/m² | - |
| 1777992952 | 6.11° C | 94% | 1009.9 hPa | 0 mm | 0 m/s | 83 W/m² | - |
| 1777992651 | 6.67° C | 94% | 1009.9 hPa | 0 mm | 0.45 m/s, 313° | 94 W/m² | - |
| 1777992348 | 6.11° C | 93% | 1010.1 hPa | 0 mm | 0.45 m/s, 299° | 96 W/m² | - |
| 1777992045 | 6.11° C | 93% | 1010.1 hPa | 0 mm | 0 m/s | 90 W/m² | - |
| 1777991743 | 6.11° C | 92% | 1010.2 hPa | 0 mm | 0.45 m/s, 324° | 92 W/m² | - |
| 1777991440 | 6.11° C | 92% | 1010.3 hPa | 1.78 mm | 0.89 m/s, 288° | 78 W/m² | - |
| 1777991137 | 6.67° C | 92% | 1010.3 hPa | 1.78 mm | 0.45 m/s, 304° | 78 W/m² | - |
| 1777990834 | 6.67° C | 91% | 1009.9 hPa | 0 mm | 0.45 m/s, 311° | 57 W/m² | - |
| 1777990531 | 6.67° C | 90% | 1009.9 hPa | 1.27 mm | 0.45 m/s, 317° | 52 W/m² | - |
| 1777990228 | 6.67° C | 89% | 1009.6 hPa | 1.27 mm | 0.45 m/s, 305° | 67 W/m² | - |
| 1777989925 | 7.22° C | 86% | 1009.6 hPa | 0 mm | 0.45 m/s, 296° | 65 W/m² | - |
| 1777989622 | 7.78° C | 84% | 1009.6 hPa | 0 mm | 0.45 m/s, 318° | 58 W/m² | - |
| 1777989318 | 7.78° C | 80% | 1009.4 hPa | 0 mm | 0.45 m/s, 293° | 60 W/m² | - |
| 1777989015 | 8.33° C | 77% | 1009.5 hPa | 0 mm | 0.45 m/s, 333° | 49 W/m² | - |
| 1777988711 | 8.89° C | 75% | 1009.4 hPa | 0 mm | 3.13 m/s, 241° | 39 W/m² | - |
| 1777988408 | 8.89° C | 75% | 1008.9 hPa | 0 mm | 1.34 m/s, 286° | 38 W/m² | - |
* Rain latest hour (hover to see other rain measurements)
** Current wind speed in m/s (hover to see current wind gust speed)